Location: Elstree
(51.6403°N, 0.2969°W)
Time: 20:25:14
(UTC+00:00)

Terra - Pass Details

Date: 19 June 2021
Orbit: 701 x 703 km, 98.2° (Epoch: 04 August)

Event Time Altitude Azimuth Distance (km) Brightness Sun altitude
Exits shadow 23:15:35 - 223° (SW) 2,545 4.4 -14.2°
Reaches altitude 10° 23:17:00 10° 235° (SW) 2,172 4.1 -14.3°
Maximum altitude 23:19:51 16° 273° (W) 1,817 4.1 -14.3°
Drops below altitude 10° 23:22:44 10° 310° (NW) 2,182 5.1 -14.4°
Sets 23:25:54 0° 332° (NNW) 3,107 6.6 -14.5°
